Weather History for Victoria, BC

Change the Weather History Date:

Friday, February 21, 2014

  Actual Average Record
Temperature  
Mean Temperature 36 °F -  
Max Temperature 44 °F 49 °F 53 °F (2002)
Min Temperature 29 °F 35 °F 26 °F (2005)
Degree Days  
Heating Degree Days 28    
Moisture  
Dew Point 30 °F    
Average Humidity 78    
Maximum Humidity 100    
Minimum Humidity 43    
Precipitation  
Precipitation 0.00 in 0.11 in - ()
Sea Level Pressure  
Sea Level Pressure 30.26 in    
Wind  
Wind Speed 3 mph ()    
Max Wind Speed 7 mph    
Max Gust Speed -    
Averages and records for this station are not official NWS values.
T = Trace of Precipitation, MM = Missing Value Source: Averaged Metar Reports

Daily Weather History Graph

Daily Weather History Graph

Search for Another Location

Airport:

Trip Planner

Search our weather history database for the weather conditions in past years. The results will help you decide how hot, cold, wet, or windy it might be!

Date:

Astronomy

Feb. 21, 2014 Rise Set
Actual Time 7:10 AM PST 5:44 PM PST
Civil Twilight 6:38 AM PST 6:16 PM PST
Nautical Twilight 6:01 AM PST 6:53 PM PST
Astronomical Twilight 5:25 AM PST 7:29 PM PST
Moon 12:15 AM PST (2/21) 10:05 AM PST (2/21)
Length of Visible Light 11h 38m
Length of Day
10h 34m
Waning Gibbous, 59% of the Moon is Illuminated
Feb 21
Waning Gibbous
Feb 22
Last Quarter
Mar 1
New
Mar 8
First Quarter
Mar 16
Full

Hourly Weather History & Observations

Time (PST) Temp. Windchill Dew Point Humidity Pressure Visibility Wind Dir Wind Speed Gust Speed Precip Events Conditions
12:00 AM 39.2 °F 35.9 °F 35.6 °F 87% 30.18 in 30.0 mi WSW 4.6 mph - N/A   Mostly Cloudy
12:51 AM 35.6 °F 32.8 °F 32.0 °F 87% 30.20 in 30.0 mi West 3.5 mph - N/A   Partly Cloudy
1:00 AM 35.6 °F - 32.0 °F 87% 30.21 in 30.0 mi WNW 2.3 mph - N/A   Partly Cloudy
2:00 AM 37.4 °F - 35.6 °F 93% 30.22 in 30.0 mi SSE 2.3 mph - N/A   Partly Cloudy
3:00 AM 30.2 °F - 30.2 °F 100% 30.23 in 30.0 mi Calm Calm - N/A   Partly Cloudy
4:00 AM 31 °F - 30 °F 96% 30.25 in 28 mi North 2.3 mph - -   Scattered Clouds
4:00 AM 30.2 °F - 30.2 °F 100% 30.24 in 30.0 mi Variable 2.3 mph - N/A   Partly Cloudy
5:00 AM 33.8 °F - 30.2 °F 87% 30.25 in 30.0 mi West 2.3 mph - N/A   Mostly Cloudy
6:00 AM 32.0 °F - 30.2 °F 93% 30.26 in 30.0 mi Calm Calm - N/A   Mostly Cloudy
7:00 AM 30.2 °F 26.7 °F 30.2 °F 100% 30.27 in 30.0 mi WSW 3.5 mph - N/A   Overcast
8:00 AM 32.0 °F - 30.2 °F 93% 30.27 in 30.0 mi SW 2.3 mph - N/A   Mostly Cloudy
9:00 AM 35.6 °F 32.8 °F 32.0 °F 87% 30.29 in 30.0 mi West 3.5 mph - N/A   Mostly Cloudy
10:00 AM 39 °F - 33 °F 70% 30.30 in 28 mi SW 4.6 mph - -   Scattered Clouds
10:00 AM 39.2 °F 35.9 °F 32.0 °F 75% 30.30 in 30.0 mi SW 4.6 mph - N/A   Mostly Cloudy
11:00 AM 41.0 °F 39.0 °F 30.2 °F 65% 30.30 in 30.0 mi WSW 3.5 mph - N/A   Mostly Cloudy
12:00 PM 42.8 °F - 30.2 °F 61% 30.30 in 30.0 mi NNW 2.3 mph - N/A   Mostly Cloudy
1:00 PM 42.8 °F 39.3 °F 26.6 °F 53% 30.29 in 30.0 mi ESE 5.8 mph - N/A   Mostly Cloudy
2:00 PM 42.8 °F 39.3 °F 26.6 °F 53% 30.28 in 30.0 mi ENE 5.8 mph - N/A   Mostly Cloudy
3:00 PM 42.8 °F 38.6 °F 24.8 °F 49% 30.28 in 30.0 mi East 6.9 mph - N/A   Mostly Cloudy
4:00 PM 42 °F - 27 °F 43% 30.28 in 28 mi East 4.6 mph - -   Mostly Cloudy
4:00 PM 41.0 °F 36.4 °F 26.6 °F 57% 30.28 in 30.0 mi ENE 6.9 mph - N/A   Mostly Cloudy
5:00 PM 41.0 °F 38.0 °F 28.4 °F 61% 30.27 in 30.0 mi ENE 4.6 mph - N/A   Mostly Cloudy
6:00 PM 41.0 °F 38.0 °F 28.4 °F 61% 30.26 in 30.0 mi ESE 4.6 mph - N/A   Mostly Cloudy
7:00 PM 37.4 °F 34.9 °F 28.4 °F 70% 30.26 in 30.0 mi SSE 3.5 mph - N/A   Scattered Clouds
7:23 PM 35.6 °F - 28.4 °F 75% 30.27 in 30.0 mi SSE 2.3 mph - N/A   Scattered Clouds
8:00 PM 33.8 °F - 28.4 °F 81% 30.27 in 30.0 mi Calm Calm - N/A   Partly Cloudy
9:00 PM 32.0 °F 28.7 °F 28.4 °F 87% 30.27 in 30.0 mi WSW 3.5 mph - N/A   Partly Cloudy
10:00 PM 33 °F - 30 °F 83% 30.26 in 28 mi WSW 3.5 mph - -   Overcast
10:00 PM 33.8 °F 30.8 °F 30.2 °F 87% 30.26 in 30.0 mi WSW 3.5 mph - N/A   Overcast
11:00 PM 32.0 °F 27.5 °F 30.2 °F 93% 30.26 in 30.0 mi West 4.6 mph - N/A   Partly Cloudy